Location: Chrome
(40.5765°N, 74.2163°W)
Time: 21:18:12
(UTC+00:00)

Cosmos 2026 Rocket - Pass Details

Date: 06 December 2019
Orbit: 940 x 1000 km, 82.9° (Epoch: 24 January)

Event Time Altitude Azimuth Distance (km) Brightness Sun altitude
Rises 23:15:04 0° 177° (S) 3,606 7.1 -19.4°
Reaches altitude 10° 23:17:34 10° 174° (S) 2,659 6.4 -19.9°
Maximum altitude 23:23:33 66° 93° (E) 1,023 3.8 -21.0°
Drops below altitude 10° 23:29:33 10° 13° (NNE) 2,664 6.1 -22.1°
Enters shadow 23:29:44 - 13° (NNE) 2,731 6.1 -22.1°
